• In Hungary
  • List of Countries
  • For 7 days
  • Water Temperature
  • Satellite Maps
  • Weather Map
  • News
  • Weather Widgets
  • user-avatar
    Login

    Hourly Weather Siodlonie

    Today, 18 September, Tuesday

    Time Temperature Precipitation Wind Pressure Humidity
    00:00 +16°C° 0 mm 3 mps 760 mmHg 69%
    01:00 +16°C° 0 mm 3 mps 760 mmHg 68%
    02:00 +16°C° 0 mm 3 mps 760 mmHg 68%
    03:00 +14°C° 0 mm 3 mps 760 mmHg 67%
    04:00 +14°C° 0 mm 3 mps 759 mmHg 66%
    05:00 +16°C° 0 mm 3 mps 759 mmHg 66%
    06:00 +16°C° 0 mm 3 mps 759 mmHg 66%
    07:00 +17°C° 0 mm 3 mps 760 mmHg 65%
    08:00 +19°C° 0 mm 3 mps 760 mmHg 60%
    09:00 +21°C° 0 mm 3 mps 759 mmHg 55%
    10:00 +23°C° 0 mm 4 mps 759 mmHg 50%
    11:00 +26°C° 0 mm 4 mps 759 mmHg 46%
    12:00 +27°C° 0 mm 4 mps 759 mmHg 42%
    13:00 +28°C° 0 mm 3 mps 759 mmHg 37%
    14:00 +28°C° 0 mm 3 mps 758 mmHg 40%
    15:00 +28°C° 0 mm 3 mps 758 mmHg 42%
    16:00 +27°C° 0 mm 3 mps 758 mmHg 45%
    17:00 +25°C° 0 mm 4 mps 757 mmHg 51%
    18:00 +22°C° 0 mm 4 mps 757 mmHg 57%
    19:00 +20°C° 0 mm 4 mps 757 mmHg 63%
    20:00 +20°C° 0 mm 4 mps 757 mmHg 64%
    21:00 +20°C° 0 mm 4 mps 757 mmHg 64%
    22:00 +20°C° 0 mm 5 mps 757 mmHg 65%
    23:00 +20°C° 0 mm 5 mps 757 mmHg 67%

    Tomorrow, 19 September, Wednesday

    Time Temperature Precipitation Wind Pressure Humidity
    00:00 +20°C° 0 mm 5 mps 757 mmHg 70%
    01:00 +19°C° 0 mm 5 mps 757 mmHg 73%
    02:00 +19°C° 0 mm 5 mps 757 mmHg 74%
    03:00 +19°C° 0 mm 5 mps 757 mmHg 76%
    04:00 +18°C° 0 mm 4 mps 757 mmHg 78%
    05:00 +18°C° 0 mm 4 mps 757 mmHg 78%
    06:00 +19°C° 0 mm 4 mps 757 mmHg 78%
    07:00 +19°C° 0 mm 4 mps 758 mmHg 79%
    08:00 +20°C° 0 mm 4 mps 758 mmHg 73%
    09:00 +22°C° 0 mm 5 mps 758 mmHg 68%
    10:00 +23°C° 0 mm 5 mps 759 mmHg 63%
    11:00 +25°C° 0 mm 5 mps 759 mmHg 60%
    12:00 +25°C° 0 mm 5 mps 759 mmHg 57%
    13:00 +26°C° 0 mm 5 mps 759 mmHg 54%
    14:00 +26°C° 0 mm 4 mps 759 mmHg 54%
    15:00 +25°C° 0 mm 4 mps 759 mmHg 54%
    16:00 +25°C° 0 mm 3 mps 759 mmHg 54%
    17:00 +22°C° 0 mm 3 mps 759 mmHg 61%
    18:00 +21°C° 0 mm 2 mps 759 mmHg 67%
    19:00 +20°C° 0 mm 1 mps 759 mmHg 74%
    20:00 +19°C° 0 mm 2 mps 759 mmHg 73%
    21:00 +19°C° 0 mm 2 mps 759 mmHg 73%
    22:00 +19°C° 0 mm 3 mps 759 mmHg 73%
    23:00 +19°C° 0 mm 3 mps 759 mmHg 73%

    Day after tomorrow, 20 September, Thursday

    Time Temperature Precipitation Wind Pressure Humidity
    00:00 +19°C° 0 mm 4 mps 759 mmHg 73%
    01:00 +19°C° 0 mm 4 mps 759 mmHg 73%
    02:00 +19°C° 0 mm 4 mps 759 mmHg 74%
    03:00 +19°C° 0 mm 5 mps 759 mmHg 74%
    04:00 +19°C° 0 mm 5 mps 759 mmHg 75%
    05:00 +20°C° 0 mm 4 mps 759 mmHg 75%
    06:00 +20°C° 0 mm 4 mps 759 mmHg 75%
    07:00 +20°C° 0 mm 4 mps 759 mmHg 75%
    08:00 +21°C° 0 mm 4 mps 759 mmHg 71%
    09:00 +23°C° 0 mm 4 mps 759 mmHg 67%
    10:00 +25°C° 0 mm 4 mps 759 mmHg 64%
    11:00 +26°C° 0 mm 4 mps 759 mmHg 61%
    12:00 +26°C° 0 mm 4 mps 759 mmHg 58%
    13:00 +27°C° 0 mm 5 mps 759 mmHg 55%
    14:00 +26°C° 0 mm 4 mps 759 mmHg 55%
    15:00 +26°C° 0 mm 4 mps 759 mmHg 56%
    16:00 +26°C° 0 mm 4 mps 758 mmHg 56%
    17:00 +24°C° 0 mm 3 mps 758 mmHg 62%
    18:00 +21°C° 0 mm 2 mps 758 mmHg 68%
    19:00 +20°C° 0 mm 1 mps 758 mmHg 74%
    20:00 +19°C° 0 mm 2 mps 758 mmHg 75%
    21:00 +19°C° 0 mm 3 mps 758 mmHg 77%
    22:00 +19°C° 0 mm 4 mps 758 mmHg 79%
    23:00 +19°C° 0 mm 4 mps 758 mmHg 80%

    21 September, Friday

    Time Temperature Precipitation Wind Pressure Humidity
    00:00 +18°C° 0 mm 4 mps 758 mmHg 81%
    01:00 +18°C° 0 mm 4 mps 757 mmHg 83%
    02:00 +18°C° 0 mm 4 mps 757 mmHg 81%
    03:00 +17°C° 0 mm 5 mps 756 mmHg 80%
    04:00 +17°C° 0 mm 5 mps 756 mmHg 78%
    05:00 +19°C° 0 mm 5 mps 756 mmHg 75%
    06:00 +20°C° 0 mm 6 mps 755 mmHg 71%
    07:00 +21°C° 0 mm 6 mps 755 mmHg 68%
    08:00 +23°C° 0 mm 7 mps 755 mmHg 62%
    09:00 +26°C° 0 mm 7 mps 754 mmHg 56%
    10:00 +28°C° 0 mm 8 mps 754 mmHg 51%
    11:00 +29°C° 0 mm 8 mps 753 mmHg 47%
    12:00 +29°C° 0 mm 8 mps 752 mmHg 44%
    13:00 +31°C° 0 mm 8 mps 751 mmHg 41%
    14:00 +31°C° 0 mm 8 mps 750 mmHg 41%
    15:00 +29°C° 0 mm 7 mps 750 mmHg 41%
    16:00 +29°C° 0 mm 7 mps 749 mmHg 40%
    17:00 +28°C° 0 mm 7 mps 748 mmHg 42%
    18:00 +27°C° 0 mm 7 mps 748 mmHg 43%
    19:00 +26°C° 0 mm 7 mps 747 mmHg 45%
    20:00 +23°C° 0.2 mm 7 mps 747 mmHg 54%
    21:00 +22°C° 0.2 mm 7 mps 747 mmHg 64%
    22:00 +20°C° 0.2 mm 6 mps 747 mmHg 73%
    23:00 +16°C° 3 mm 7 mps 748 mmHg 78%

    22 September, Saturday

    Time Temperature Precipitation Wind Pressure Humidity
    00:00 +12°C° 3 mm 8 mps 749 mmHg 82%
    01:00 +10°C° 3 mm 8 mps 750 mmHg 86%
    02:00 +10°C° 0.6 mm 9 mps 751 mmHg 84%
    03:00 +10°C° 0.6 mm 9 mps 751 mmHg 81%
    04:00 +9°C° 0.6 mm 10 mps 752 mmHg 78%
    05:00 +9°C° 0.1 mm 10 mps 752 mmHg 76%
    06:00 +9°C° 0.1 mm 10 mps 752 mmHg 75%
    07:00 +9°C° 0.1 mm 10 mps 753 mmHg 73%
    08:00 +11°C° 0.3 mm 10 mps 753 mmHg 71%
    09:00 +11°C° 0.3 mm 10 mps 753 mmHg 68%
    10:00 +12°C° 0.3 mm 10 mps 754 mmHg 66%
    11:00 +13°C° 0.3 mm 11 mps 754 mmHg 63%
    12:00 +13°C° 0.3 mm 11 mps 754 mmHg 61%
    13:00 +14°C° 0.3 mm 11 mps 755 mmHg 58%
    14:00 +13°C° 0.5 mm 11 mps 755 mmHg 60%
    15:00 +13°C° 0.5 mm 10 mps 755 mmHg 62%
    16:00 +12°C° 0.5 mm 10 mps 755 mmHg 65%
    17:00 +12°C° 0.3 mm 10 mps 755 mmHg 68%
    18:00 +11°C° 0.3 mm 9 mps 755 mmHg 72%
    19:00 +10°C° 0.3 mm 9 mps 755 mmHg 75%
    20:00 +10°C° 0.6 mm 9 mps 755 mmHg 76%
    21:00 +10°C° 0.6 mm 9 mps 756 mmHg 76%
    22:00 +10°C° 0.6 mm 9 mps 756 mmHg 77%
    23:00 +10°C° 0.6 mm 9 mps 756 mmHg 78%

    23 September, Sunday

    Time Temperature Precipitation Wind Pressure Humidity
    00:00 +10°C° 0.6 mm 9 mps 756 mmHg 78%
    01:00 +10°C° 0.6 mm 9 mps 756 mmHg 79%
    02:00 +9°C° 0.3 mm 8 mps 756 mmHg 80%
    03:00 +9°C° 0.3 mm 8 mps 756 mmHg 81%
    04:00 +9°C° 0.3 mm 8 mps 757 mmHg 82%
    05:00 +9°C° 0.2 mm 7 mps 757 mmHg 82%
    06:00 +9°C° 0.2 mm 7 mps 756 mmHg 82%
    07:00 +9°C° 0.2 mm 7 mps 756 mmHg 82%
    08:00 +10°C° 0.1 mm 7 mps 757 mmHg 77%
    09:00 +11°C° 0.1 mm 6 mps 757 mmHg 72%
    10:00 +13°C° 0.1 mm 6 mps 757 mmHg 67%
    11:00 +14°C° 0.1 mm 6 mps 756 mmHg 61%
    12:00 +14°C° 0.1 mm 6 mps 756 mmHg 54%
    13:00 +15°C° 0.1 mm 6 mps 755 mmHg 48%
    14:00 +15°C° 0 mm 5 mps 754 mmHg 49%
    15:00 +15°C° 0 mm 5 mps 754 mmHg 50%
    16:00 +14°C° 0 mm 5 mps 753 mmHg 51%
    17:00 +14°C° 0 mm 5 mps 752 mmHg 53%
    18:00 +13°C° 0 mm 6 mps 751 mmHg 55%
    19:00 +12°C° 0 mm 7 mps 750 mmHg 57%
    20:00 +11°C° 0.5 mm 7 mps 749 mmHg 64%
    21:00 +11°C° 0.5 mm 8 mps 748 mmHg 71%
    22:00 +10°C° 0.5 mm 9 mps 747 mmHg 78%
    23:00 +10°C° 1.5 mm 9 mps 746 mmHg 81%
    Show more